Time,TemperatureF,DewpointF,PressureIn,WindDirection,WindDirectionDegrees,WindSpeedMPH,WindSpeedGustMPH,Humidity,HourlyPrecipIn,Conditions,Clouds,dailyrainin,SolarRadiationWatts/m^2,SoftwareType,DateUTC
2013-01-12 00:00:00,27.5,16.5,30.06,NW,315,5.8,5.8,63,0.00,CLR,,0.00,0.0,WeatherDisplay:10.37,2013-01-11 23:00:00,
2013-01-12 00:05:00,27.5,16.5,30.06,NW,315,5.8,5.8,63,0.00,CLR,,0.00,0.0,WeatherDisplay:10.37,2013-01-11 23:05:00,
2013-01-12 00:10:00,27.5,16.5,30.06,WNW,292,5.8,6.4,63,0.00,CLR,,0.00,0.0,WeatherDisplay:10.37,2013-01-11 23:10:00,
2013-01-12 00:15:00,27.5,16.5,30.06,WNW,292,4.6,6.4,63,0.00,CLR,,0.00,0.0,WeatherDisplay:10.37,2013-01-11 23:15:00,
2013-01-12 00:20:00,27.5,16.5,30.06,WNW,292,8.1,8.1,63,0.00,CLR,,0.00,0.0,WeatherDisplay:10.37,2013-01-11 23:20:00,
2013-01-12 00:25:00,27.5,16.5,30.06,WNW,292,3.5,5.6,63,0.00,CLR,,0.00,0.0,WeatherDisplay:10.37,2013-01-11 23:25:00,
2013-01-12 00:30:00,27.3,16.4,30.06,WNW,292,6.9,6.9,63,0.00,CLR,,0.00,0.0,WeatherDisplay:10.37,2013-01-11 23:30:00,
2013-01-12 00:35:00,27.1,16.2,30.09,WNW,292,6.9,6.9,63,0.00,CLR,,0.00,0.0,WeatherDisplay:10.37,2013-01-11 23:35:00,
2013-01-12 00:40:00,27.1,16.2,30.09,WNW,292,6.9,6.9,63,0.00,CLR,,0.00,0.0,WeatherDisplay:10.37,2013-01-11 23:40:00,
2013-01-12 00:45:00,27.1,16.2,30.09,WNW,292,6.9,6.9,63,0.00,CLR,,0.00,0.0,WeatherDisplay:10.37,2013-01-11 23:45:00,
2013-01-12 00:50:00,27.0,16.0,30.09,WNW,292,5.9,5.9,63,0.00,CLR,,0.00,0.0,WeatherDisplay:10.37,2013-01-11 23:50:00,
2013-01-12 00:55:00,27.0,16.0,30.09,WNW,292,5.9,5.9,63,0.00,CLR,,0.00,0.0,WeatherDisplay:10.37,2013-01-11 23:55:00,
2013-01-12 01:00:00,27.0,16.0,30.09,WNW,292,5.9,5.9,63,0.00,CLR,,0.00,0.0,WeatherDisplay:10.37,2013-01-12 00:00:00,
2013-01-12 01:05:00,26.8,15.9,30.09,WNW,292,5.9,5.9,63,0.00,CLR,,0.00,0.0,WeatherDisplay:10.37,2013-01-12 00:05:00,
2013-01-12 01:10:00,26.6,16.1,30.09,WNW,292,5.9,5.9,64,0.00,CLR,,0.00,0.0,WeatherDisplay:10.37,2013-01-12 00:10:00,
2013-01-12 01:15:00,26.4,15.9,30.09,WNW,292,5.9,5.9,64,0.00,CLR,,0.00,0.0,WeatherDisplay:10.37,2013-01-12 00:15:00,
2013-01-12 01:20:00,26.2,15.7,30.09,WNW,292,3.8,4.3,64,0.00,CLR,,0.00,0.0,WeatherDisplay:10.37,2013-01-12 00:20:00,
2013-01-12 01:25:00,26.2,15.7,30.09,WNW,292,3.8,4.3,64,0.00,CLR,,0.00,0.0,WeatherDisplay:10.37,2013-01-12 00:25:00,
2013-01-12 01:30:00,26.2,16.1,30.09,WNW,292,5.8,5.8,65,0.00,CLR,,0.00,0.0,WeatherDisplay:10.37,2013-01-12 00:30:00,
2013-01-12 01:35:00,26.1,15.9,30.09,North,0,4.6,5.4,65,0.00,CLR,,0.00,0.0,WeatherDisplay:10.37,2013-01-12 00:35:00,
2013-01-12 01:40:00,26.1,16.2,30.09,North,0,4.6,5.4,66,0.00,CLR,,0.00,0.0,WeatherDisplay:10.37,2013-01-12 00:40:00,
2013-01-12 01:45:00,26.1,16.2,30.09,North,0,4.6,5.4,66,0.00,CLR,,0.00,0.0,WeatherDisplay:10.37,2013-01-12 00:45:00,
2013-01-12 01:50:00,26.1,16.2,30.12,North,0,4.6,5.4,66,0.00,CLR,,0.00,0.0,WeatherDisplay:10.37,2013-01-12 00:50:00,
2013-01-12 01:55:00,25.9,16.4,30.12,WNW,292,6.0,6.0,67,0.00,CLR,,0.00,0.0,WeatherDisplay:10.37,2013-01-12 00:55:00,
2013-01-12 02:00:00,25.7,16.3,30.12,WNW,292,6.0,6.0,67,0.00,CLR,,0.00,0.0,WeatherDisplay:10.37,2013-01-12 01:00:00,
2013-01-12 02:05:00,25.7,16.3,30.12,WNW,292,6.0,6.0,67,0.00,CLR,,0.00,0.0,WeatherDisplay:10.37,2013-01-12 01:05:00,
2013-01-12 02:10:00,25.5,16.1,30.12,WNW,292,6.0,6.0,67,0.00,CLR,,0.00,0.0,WeatherDisplay:10.37,2013-01-12 01:10:00,
2013-01-12 02:15:00,25.5,16.1,30.12,WNW,292,6.0,6.0,67,0.00,CLR,,0.00,0.0,WeatherDisplay:10.37,2013-01-12 01:15:00,
2013-01-12 02:20:00,25.5,16.1,30.12,NW,315,2.9,3.8,67,0.00,CLR,,0.00,0.0,WeatherDisplay:10.37,2013-01-12 01:20:00,
2013-01-12 02:25:00,25.5,16.1,30.12,NW,315,2.9,3.8,67,0.00,CLR,,0.00,0.0,WeatherDisplay:10.37,2013-01-12 01:25:00,
2013-01-12 02:30:00,25.7,16.3,30.12,NW,315,2.9,3.8,67,0.00,CLR,,0.00,0.0,WeatherDisplay:10.37,2013-01-12 01:30:00,
2013-01-12 02:35:00,25.7,15.9,30.09,NW,315,2.9,3.8,66,0.00,CLR,,0.00,0.0,WeatherDisplay:10.37,2013-01-12 01:35:00,
2013-01-12 02:40:00,25.7,15.9,30.09,NW,315,2.9,3.8,66,0.00,CLR,,0.00,0.0,WeatherDisplay:10.37,2013-01-12 01:40:00,
2013-01-12 02:45:00,25.7,15.9,30.09,NW,315,2.9,3.8,66,0.00,CLR,,0.00,0.0,WeatherDisplay:10.37,2013-01-12 01:45:00,
2013-01-12 02:50:00,25.7,15.6,30.09,NW,315,2.9,3.8,65,0.00,CLR,,0.00,0.0,WeatherDisplay:10.37,2013-01-12 01:50:00,
2013-01-12 02:55:00,25.5,15.4,30.09,NW,315,2.9,3.8,65,0.00,CLR,,0.00,0.0,WeatherDisplay:10.37,2013-01-12 01:55:00,
2013-01-12 03:00:00,25.3,15.2,30.09,NW,315,2.9,3.8,65,0.00,CLR,,0.00,0.0,WeatherDisplay:10.37,2013-01-12 02:00:00,
2013-01-12 03:05:00,25.3,15.2,30.12,NW,315,2.9,3.8,65,0.00,CLR,,0.00,0.0,WeatherDisplay:10.37,2013-01-12 02:05:00,
2013-01-12 03:10:00,25.2,15.0,30.12,NW,315,2.9,3.8,65,0.00,CLR,,0.00,0.0,WeatherDisplay:10.37,2013-01-12 02:10:00,
2013-01-12 03:15:00,25.0,14.9,30.12,NW,315,2.9,3.8,65,0.00,CLR,,0.00,0.0,WeatherDisplay:10.37,2013-01-12 02:15:00,
2013-01-12 03:20:00,25.0,14.9,30.12,NW,315,2.9,3.8,65,0.00,CLR,,0.00,0.0,WeatherDisplay:10.37,2013-01-12 02:20:00,
2013-01-12 03:25:00,25.0,14.9,30.12,NW,315,2.9,3.8,65,0.00,CLR,,0.00,0.0,WeatherDisplay:10.37,2013-01-12 02:25:00,
2013-01-12 03:30:00,25.0,14.9,30.12,NW,315,2.9,3.8,65,0.00,CLR,,0.00,0.0,WeatherDisplay:10.37,2013-01-12 02:30:00,
2013-01-12 03:35:00,25.2,15.0,30.12,NW,315,2.9,3.8,65,0.00,CLR,,0.00,0.0,WeatherDisplay:10.37,2013-01-12 02:35:00,
2013-01-12 03:40:00,25.0,14.9,30.12,NW,315,2.9,3.8,65,0.00,CLR,,0.00,0.0,WeatherDisplay:10.37,2013-01-12 02:40:00,
2013-01-12 03:45:00,24.8,14.7,30.12,NW,315,2.9,3.8,65,0.00,CLR,,0.00,0.0,WeatherDisplay:10.37,2013-01-12 02:45:00,
2013-01-12 03:50:00,24.8,14.7,30.09,NW,315,2.9,3.8,65,0.00,CLR,,0.00,0.0,WeatherDisplay:10.37,2013-01-12 02:50:00,
2013-01-12 03:55:00,24.8,14.7,30.09,NW,315,2.9,3.8,65,0.00,CLR,,0.00,0.0,WeatherDisplay:10.37,2013-01-12 02:55:00,
2013-01-12 04:00:00,24.6,14.5,30.09,NW,315,2.9,3.8,65,0.00,CLR,,0.00,0.0,WeatherDisplay:10.37,2013-01-12 03:00:00,
2013-01-12 04:05:00,24.8,14.7,30.09,NW,315,2.9,3.8,65,0.00,CLR,,0.00,0.0,WeatherDisplay:10.37,2013-01-12 03:05:00,
2013-01-12 04:10:00,25.0,14.5,30.09,NW,315,2.9,3.8,64,0.00,CLR,,0.00,0.0,WeatherDisplay:10.37,2013-01-12 03:10:00,
2013-01-12 04:15:00,25.0,14.5,30.09,NW,315,2.9,3.8,64,0.00,CLR,,0.00,0.0,WeatherDisplay:10.37,2013-01-12 03:15:00,
2013-01-12 04:20:00,25.0,14.5,30.06,NW,315,2.9,3.8,64,0.00,CLR,,0.00,0.0,WeatherDisplay:10.37,2013-01-12 03:20:00,
2013-01-12 04:25:00,25.0,14.5,30.06,NW,315,2.9,3.8,64,0.00,CLR,,0.00,0.0,WeatherDisplay:10.37,2013-01-12 03:25:00,
2013-01-12 04:30:00,25.0,14.5,30.06,NW,315,2.9,3.8,64,0.00,CLR,,0.00,0.0,WeatherDisplay:10.37,2013-01-12 03:30:00,
2013-01-12 04:35:00,25.0,14.2,30.06,NW,315,2.9,3.8,63,0.00,CLR,,0.00,0.0,WeatherDisplay:10.37,2013-01-12 03:35:00,
2013-01-12 04:40:00,25.0,14.5,30.06,NW,315,2.9,3.8,64,0.00,CLR,,0.00,0.0,WeatherDisplay:10.37,2013-01-12 03:40:00,
2013-01-12 04:45:00,25.2,14.3,30.06,NW,315,2.9,3.8,63,0.00,CLR,,0.00,0.0,WeatherDisplay:10.37,2013-01-12 03:45:00,
2013-01-12 04:50:00,25.3,14.5,30.06,NW,315,2.9,3.8,63,0.00,CLR,,0.00,0.0,WeatherDisplay:10.37,2013-01-12 03:50:00,
2013-01-12 04:55:00,25.3,14.5,30.09,NW,315,5.8,5.8,63,0.00,CLR,,0.00,0.0,WeatherDisplay:10.37,2013-01-12 03:55:00,
2013-01-12 05:00:00,25.3,14.5,30.09,NW,315,5.8,5.8,63,0.00,CLR,,0.00,0.0,WeatherDisplay:10.37,2013-01-12 04:00:00,
2013-01-12 05:05:00,25.2,14.3,30.09,NW,315,5.8,5.8,63,0.00,CLR,,0.00,0.0,WeatherDisplay:10.37,2013-01-12 04:05:00,
2013-01-12 05:10:00,25.2,14.3,30.09,NW,315,5.8,5.8,63,0.00,CLR,,0.00,0.0,WeatherDisplay:10.37,2013-01-12 04:10:00,
2013-01-12 05:15:00,25.2,14.3,30.09,NW,315,5.8,5.8,63,0.00,CLR,,0.00,0.0,WeatherDisplay:10.37,2013-01-12 04:15:00,
2013-01-12 05:20:00,25.0,14.2,30.09,WNW,292,4.6,4.6,63,0.00,CLR,,0.00,0.0,WeatherDisplay:10.37,2013-01-12 04:20:00,
2013-01-12 05:25:00,25.0,14.2,30.09,WNW,292,4.6,4.6,63,0.00,CLR,,0.00,0.0,WeatherDisplay:10.37,2013-01-12 04:25:00,
2013-01-12 05:30:00,24.8,14.3,30.09,WNW,292,4.6,4.6,64,0.00,CLR,,0.00,0.0,WeatherDisplay:10.37,2013-01-12 04:30:00,
2013-01-12 05:35:00,24.6,14.2,30.06,WNW,292,4.6,4.6,64,0.00,CLR,,0.00,0.0,WeatherDisplay:10.37,2013-01-12 04:35:00,
2013-01-12 05:40:00,24.6,14.2,30.06,WNW,292,4.6,4.6,64,0.00,CLR,,0.00,0.0,WeatherDisplay:10.37,2013-01-12 04:40:00,
2013-01-12 05:45:00,24.4,14.0,30.06,WNW,292,4.6,4.6,64,0.00,CLR,,0.00,0.0,WeatherDisplay:10.37,2013-01-12 04:45:00,
2013-01-12 05:50:00,24.3,13.8,30.06,WNW,292,4.6,4.6,64,0.00,CLR,,0.00,0.0,WeatherDisplay:10.37,2013-01-12 04:50:00,
2013-01-12 05:55:00,24.1,13.7,30.06,WNW,292,4.6,4.6,64,0.00,CLR,,0.00,0.0,WeatherDisplay:10.37,2013-01-12 04:55:00,
2013-01-12 06:01:00,23.5,13.1,30.06,WNW,292,4.6,4.6,64,0.00,CLR,,0.00,0.0,WeatherDisplay:10.37,2013-01-12 05:01:00,
2013-01-12 06:02:00,23.5,13.1,30.06,WNW,292,4.6,4.6,64,0.00,CLR,,0.00,0.0,WeatherDisplay:10.37,2013-01-12 05:02:00,
2013-01-12 06:07:00,23.4,13.0,30.09,WNW,292,4.6,4.6,64,0.00,CLR,,0.00,0.0,WeatherDisplay:10.37,2013-01-12 05:07:00,
2013-01-12 06:12:00,23.2,13.1,30.09,WNW,292,4.6,4.6,65,0.00,CLR,,0.00,0.0,WeatherDisplay:10.37,2013-01-12 05:12:00,
2013-01-12 06:17:00,23.0,13.3,30.09,WNW,292,4.6,4.6,66,0.00,CLR,,0.00,0.0,WeatherDisplay:10.37,2013-01-12 05:17:00,
2013-01-12 06:22:00,23.2,13.5,30.09,WNW,292,3.5,3.5,66,0.00,CLR,,0.00,0.0,WeatherDisplay:10.37,2013-01-12 05:22:00,
2013-01-12 06:27:00,23.4,14.0,30.09,WNW,292,3.6,3.6,67,0.00,CLR,,0.00,0.0,WeatherDisplay:10.37,2013-01-12 05:27:00,
2013-01-12 06:32:00,23.5,14.5,30.09,WNW,292,3.6,3.6,68,0.00,CLR,,0.00,0.0,WeatherDisplay:10.37,2013-01-12 05:32:00,
2013-01-12 06:37:00,23.5,14.5,30.09,NW,315,2.3,3.1,68,0.00,CLR,,0.00,0.0,WeatherDisplay:10.37,2013-01-12 05:37:00,
2013-01-12 06:42:00,23.5,14.5,30.09,WNW,292,2.4,2.4,68,0.00,CLR,,0.00,0.0,WeatherDisplay:10.37,2013-01-12 05:42:00,
2013-01-12 06:47:00,23.5,14.9,30.09,WNW,292,2.4,2.4,69,0.00,CLR,,0.00,0.0,WeatherDisplay:10.37,2013-01-12 05:47:00,
2013-01-12 06:52:00,23.7,15.0,30.09,WNW,292,2.4,2.4,69,0.00,CLR,,0.00,0.0,WeatherDisplay:10.37,2013-01-12 05:52:00,
2013-01-12 06:57:00,23.7,15.0,30.09,WNW,292,4.6,4.6,69,0.00,CLR,,0.00,0.0,WeatherDisplay:10.37,2013-01-12 05:57:00,
2013-01-12 07:02:00,23.7,15.0,30.09,WNW,292,4.6,4.6,69,0.00,RA,,0.00,0.0,WeatherDisplay:10.37,2013-01-12 06:02:00,
2013-01-12 07:07:00,23.7,15.0,30.09,WNW,292,3.8,3.8,69,0.00,RA,,0.00,0.0,WeatherDisplay:10.37,2013-01-12 06:07:00,
2013-01-12 07:12:00,23.9,15.5,30.09,WNW,292,3.8,3.8,70,0.00,OVC,,0.00,0.0,WeatherDisplay:10.37,2013-01-12 06:12:00,
2013-01-12 07:17:00,23.9,15.5,30.09,WNW,292,3.8,3.8,70,0.00,OVC,,0.00,0.0,WeatherDisplay:10.37,2013-01-12 06:17:00,
2013-01-12 07:22:00,24.1,15.7,30.09,WNW,292,3.8,3.8,70,0.00,OVC,,0.00,0.0,WeatherDisplay:10.37,2013-01-12 06:22:00,
2013-01-12 07:27:00,24.3,15.9,30.09,NNW,338,6.9,6.9,70,0.00,OVC,,0.00,0.0,WeatherDisplay:10.37,2013-01-12 06:27:00,
2013-01-12 07:32:00,24.4,16.1,30.09,NNW,338,6.9,6.9,70,0.00,OVC,,0.00,0.0,WeatherDisplay:10.37,2013-01-12 06:32:00,
2013-01-12 07:37:00,24.4,15.7,30.09,NNW,338,6.9,6.9,69,0.00,OVC,,0.00,0.0,WeatherDisplay:10.37,2013-01-12 06:37:00,
2013-01-12 07:42:00,24.4,15.7,30.09,NNW,338,6.9,6.9,69,0.00,OVC,,0.00,0.0,WeatherDisplay:10.37,2013-01-12 06:42:00,
2013-01-12 07:47:00,24.4,15.4,30.09,NNW,338,6.9,6.9,68,0.00,OVC,,0.00,0.0,WeatherDisplay:10.37,2013-01-12 06:47:00,
2013-01-12 07:52:00,24.4,15.4,30.12,NNW,338,6.9,6.9,68,0.00,OVC,,0.00,0.0,WeatherDisplay:10.37,2013-01-12 06:52:00,
2013-01-12 07:57:00,24.4,15.4,30.12,NNW,338,6.9,6.9,68,0.00,OVC,,0.00,0.0,WeatherDisplay:10.37,2013-01-12 06:57:00,
2013-01-12 08:02:00,24.3,15.2,30.12,NNW,338,6.9,6.9,68,0.00,OVC,,0.00,0.0,WeatherDisplay:10.37,2013-01-12 07:02:00,
2013-01-12 08:07:00,24.3,15.2,30.12,NNW,338,6.9,6.9,68,0.00,OVC,,0.00,0.0,WeatherDisplay:10.37,2013-01-12 07:07:00,
2013-01-12 08:12:00,24.3,15.2,30.12,NNW,338,6.9,6.9,68,0.00,OVC,,0.00,0.0,WeatherDisplay:10.37,2013-01-12 07:12:00,
2013-01-12 08:17:00,24.4,15.4,30.12,NNW,338,6.9,6.9,68,0.00,OVC,,0.00,0.0,WeatherDisplay:10.37,2013-01-12 07:17:00,
2013-01-12 08:22:00,24.4,15.7,30.12,WNW,292,5.8,5.8,69,0.00,OVC,,0.00,0.0,WeatherDisplay:10.37,2013-01-12 07:22:00,
2013-01-12 08:27:00,24.6,15.9,30.12,WNW,292,5.8,5.8,69,0.00,OVC,,0.00,0.0,WeatherDisplay:10.37,2013-01-12 07:27:00,
2013-01-12 08:32:00,24.8,15.7,30.12,WNW,292,5.8,5.8,68,0.00,OVC,,0.00,0.0,WeatherDisplay:10.37,2013-01-12 07:32:00,
2013-01-12 08:37:00,25.0,15.9,30.12,WNW,292,5.8,5.8,68,0.00,OVC,,0.00,0.0,WeatherDisplay:10.37,2013-01-12 07:37:00,
2013-01-12 08:42:00,25.2,15.7,30.12,WNW,292,5.8,5.8,67,0.00,OVC,,0.00,0.0,WeatherDisplay:10.37,2013-01-12 07:42:00,
2013-01-12 08:47:00,25.5,16.1,30.12,WNW,292,5.8,5.8,67,0.00,OVC,,0.00,0.0,WeatherDisplay:10.37,2013-01-12 07:47:00,
2013-01-12 08:52:00,25.7,15.9,30.12,WNW,292,5.8,5.8,66,0.00,OVC,,0.00,0.0,WeatherDisplay:10.37,2013-01-12 07:52:00,
2013-01-12 08:57:00,25.9,16.1,30.12,WNW,292,5.8,5.8,66,0.00,OVC,,0.00,0.0,WeatherDisplay:10.37,2013-01-12 07:57:00,
2013-01-12 09:02:00,26.1,15.9,30.12,WNW,292,5.8,5.8,65,0.00,OVC,,0.00,0.0,WeatherDisplay:10.37,2013-01-12 08:02:00,
2013-01-12 09:07:00,26.1,15.9,30.15,WNW,292,5.8,5.8,65,0.00,OVC,,0.00,0.0,WeatherDisplay:10.37,2013-01-12 08:07:00,
2013-01-12 09:12:00,26.4,15.9,30.15,WNW,292,5.8,5.8,64,0.00,OVC,,0.00,0.0,WeatherDisplay:10.37,2013-01-12 08:12:00,
2013-01-12 09:17:00,26.6,16.1,30.15,WNW,292,5.8,5.8,64,0.00,OVC,,0.00,0.0,WeatherDisplay:10.37,2013-01-12 08:17:00,
2013-01-12 09:22:00,26.8,15.9,30.15,WNW,292,5.8,5.8,63,0.00,OVC,,0.00,0.0,WeatherDisplay:10.37,2013-01-12 08:22:00,
2013-01-12 09:27:00,26.8,15.9,30.15,WNW,292,3.5,3.5,63,0.00,OVC,,0.00,0.0,WeatherDisplay:10.37,2013-01-12 08:27:00,
2013-01-12 09:32:00,27.0,16.0,30.15,WNW,292,3.5,3.5,63,0.00,OVC,,0.00,0.0,WeatherDisplay:10.37,2013-01-12 08:32:00,
2013-01-12 09:37:00,27.0,16.0,30.12,WNW,292,3.5,3.5,63,0.00,OVC,,0.00,0.0,WeatherDisplay:10.37,2013-01-12 08:37:00,
2013-01-12 09:42:00,27.0,16.0,30.12,WSW,248,3.5,3.6,63,0.00,OVC,,0.00,0.0,WeatherDisplay:10.37,2013-01-12 08:42:00,
2013-01-12 09:47:00,27.0,15.7,30.12,WSW,248,3.5,3.6,62,0.00,OVC,,0.00,0.0,WeatherDisplay:10.37,2013-01-12 08:47:00,
2013-01-12 09:52:00,27.0,15.7,30.09,WSW,248,3.5,3.6,62,0.00,OVC,,0.00,0.0,WeatherDisplay:10.37,2013-01-12 08:52:00,
2013-01-12 09:57:00,27.0,16.0,30.09,WSW,248,3.6,3.8,63,0.00,OVC,,0.00,0.0,WeatherDisplay:10.37,2013-01-12 08:57:00,
2013-01-12 10:02:00,27.3,16.0,30.09,WSW,248,3.5,3.5,62,0.00,OVC,,0.00,0.0,WeatherDisplay:10.37,2013-01-12 09:02:00,
2013-01-12 10:07:00,27.3,16.0,30.12,WNW,292,4.6,4.6,62,0.00,OVC,,0.00,0.0,WeatherDisplay:10.37,2013-01-12 09:07:00,
2013-01-12 10:12:00,27.7,16.3,30.12,WNW,292,4.9,4.9,62,0.00,OVC,,0.00,0.0,WeatherDisplay:10.37,2013-01-12 09:12:00,
2013-01-12 10:17:00,27.9,16.5,30.12,WNW,292,6.9,6.9,62,0.00,OVC,,0.00,0.0,WeatherDisplay:10.37,2013-01-12 09:17:00,
2013-01-12 10:22:00,28.0,16.3,30.12,WNW,292,2.6,2.9,61,0.00,OVC,,0.00,0.0,WeatherDisplay:10.37,2013-01-12 09:22:00,
2013-01-12 10:27:00,28.2,16.5,30.12,West,270,4.6,4.6,61,0.00,OVC,,0.00,0.0,WeatherDisplay:10.37,2013-01-12 09:27:00,
2013-01-12 10:32:00,28.4,16.3,30.12,West,270,4.6,4.6,60,0.00,OVC,,0.00,0.0,WeatherDisplay:10.37,2013-01-12 09:32:00,
2013-01-12 10:37:00,28.6,16.1,30.12,WNW,292,4.6,4.6,59,0.00,OVC,,0.00,0.0,WeatherDisplay:10.37,2013-01-12 09:37:00,
2013-01-12 10:42:00,28.9,16.0,30.12,WSW,248,4.6,4.6,58,0.00,OVC,,0.00,0.0,WeatherDisplay:10.37,2013-01-12 09:42:00,
2013-01-12 10:47:00,29.1,16.2,30.12,WSW,248,2.9,2.9,58,0.00,OVC,,0.00,0.0,WeatherDisplay:10.37,2013-01-12 09:47:00,
2013-01-12 10:52:00,29.5,16.1,30.12,West,270,4.6,4.6,57,0.00,OVC,,0.00,0.0,WeatherDisplay:10.37,2013-01-12 09:52:00,
2013-01-12 10:57:00,29.5,15.7,30.12,WNW,292,4.9,4.9,56,0.00,OVC,,0.00,0.0,WeatherDisplay:10.37,2013-01-12 09:57:00,
2013-01-12 11:02:00,29.7,15.5,30.12,NNW,338,5.9,5.9,55,0.00,OVC,,0.00,0.0,WeatherDisplay:10.37,2013-01-12 10:02:00,
2013-01-12 11:07:00,29.7,15.5,30.12,WSW,248,8.1,8.1,55,0.00,OVC,,0.00,0.0,WeatherDisplay:10.37,2013-01-12 10:07:00,
2013-01-12 11:12:00,29.7,15.0,30.12,WSW,248,4.9,4.9,54,0.00,OVC,,0.00,0.0,WeatherDisplay:10.37,2013-01-12 10:12:00,
2013-01-12 11:17:00,29.5,14.9,30.12,West,270,3.5,4.7,54,0.00,OVC,,0.00,0.0,WeatherDisplay:10.37,2013-01-12 10:17:00,
2013-01-12 11:22:00,29.5,14.9,30.12,SW,225,2.3,4.3,54,0.00,OVC,,0.00,0.0,WeatherDisplay:10.37,2013-01-12 10:22:00,
2013-01-12 11:27:00,29.3,14.7,30.12,WSW,248,3.3,3.6,54,0.00,OVC,,0.00,0.0,WeatherDisplay:10.37,2013-01-12 10:27:00,
2013-01-12 11:32:00,29.3,14.3,30.12,WSW,248,3.5,3.6,53,0.00,OVC,,0.00,0.0,WeatherDisplay:10.37,2013-01-12 10:32:00,
2013-01-12 11:37:00,29.1,14.1,30.09,WSW,248,3.5,3.6,53,0.00,OVC,,0.00,0.0,WeatherDisplay:10.37,2013-01-12 10:37:00,
2013-01-12 11:42:00,29.1,14.5,30.09,WSW,248,3.5,3.6,54,0.00,OVC,,0.00,0.0,WeatherDisplay:10.37,2013-01-12 10:42:00,
2013-01-12 11:47:00,29.1,14.1,30.09,SSW,202,5.8,5.8,53,0.00,OVC,,0.00,0.0,WeatherDisplay:10.37,2013-01-12 10:47:00,
2013-01-12 11:52:00,29.3,14.7,30.09,WNW,292,6.0,6.0,54,0.00,OVC,,0.00,0.0,WeatherDisplay:10.37,2013-01-12 10:52:00,
2013-01-12 11:57:00,29.3,14.3,30.09,West,270,4.6,4.6,53,0.00,OVC,,0.00,0.0,WeatherDisplay:10.37,2013-01-12 10:57:00,
2013-01-12 12:02:00,29.5,14.4,30.09,NW,315,6.2,6.2,53,0.00,OVC,,0.00,0.0,WeatherDisplay:10.37,2013-01-12 11:02:00,
2013-01-12 12:07:00,29.5,14.4,30.09,WNW,292,4.9,4.9,53,0.00,OVC,,0.00,0.0,WeatherDisplay:10.37,2013-01-12 11:07:00,
2013-01-12 12:12:00,29.5,14.4,30.09,NNW,338,4.6,4.6,53,0.00,OVC,,0.00,0.0,WeatherDisplay:10.37,2013-01-12 11:12:00,
2013-01-12 12:17:00,29.5,14.4,30.09,West,270,6.9,6.9,53,0.00,OVC,,0.00,0.0,WeatherDisplay:10.37,2013-01-12 11:17:00,
2013-01-12 12:22:00,29.7,14.6,30.06,NNE,22,4.6,4.6,53,0.00,OVC,,0.00,0.0,WeatherDisplay:10.37,2013-01-12 11:22:00,
2013-01-12 12:27:00,29.7,14.6,30.06,WSW,248,5.8,5.8,53,0.00,OVC,,0.00,0.0,WeatherDisplay:10.37,2013-01-12 11:27:00,
2013-01-12 12:32:00,29.8,15.2,30.06,West,270,4.7,4.7,54,0.00,OVC,,0.00,0.0,WeatherDisplay:10.37,2013-01-12 11:32:00,
2013-01-12 12:37:00,29.8,14.8,30.12,NW,315,4.6,4.6,53,0.00,OVC,,0.00,0.0,WeatherDisplay:10.37,2013-01-12 11:37:00,
2013-01-12 12:42:00,29.8,14.8,30.12,West,270,8.5,8.5,53,0.00,OVC,,0.00,0.0,WeatherDisplay:10.37,2013-01-12 11:42:00,
2013-01-12 12:47:00,30.0,14.9,30.12,West,270,4.6,4.9,53,0.00,OVC,,0.00,0.0,WeatherDisplay:10.37,2013-01-12 11:47:00,
2013-01-12 12:52:00,30.2,15.1,30.12,WSW,248,6.9,6.9,53,0.00,OVC,,0.00,0.0,WeatherDisplay:10.37,2013-01-12 11:52:00,
2013-01-12 12:57:00,30.2,14.2,30.12,North,0,4.9,4.9,51,0.00,OVC,,0.00,0.0,WeatherDisplay:10.37,2013-01-12 11:57:00,
2013-01-12 13:02:00,30.2,14.2,30.12,WSW,248,4.9,4.9,51,0.00,OVC,,0.00,0.0,WeatherDisplay:10.37,2013-01-12 12:02:00,
2013-01-12 13:07:00,30.4,14.4,30.09,WSW,248,3.6,4.5,51,0.00,OVC,,0.00,0.0,WeatherDisplay:10.37,2013-01-12 12:07:00,
2013-01-12 13:12:00,30.6,14.6,30.09,NW,315,4.6,4.6,51,0.00,OVC,,0.00,0.0,WeatherDisplay:10.37,2013-01-12 12:12:00,
2013-01-12 13:17:00,30.7,14.7,30.09,WSW,248,3.5,3.5,51,0.00,OVC,,0.00,0.0,WeatherDisplay:10.37,2013-01-12 12:17:00,
2013-01-12 13:22:00,30.7,14.3,30.09,WSW,248,3.5,3.5,50,0.00,OVC,,0.00,0.0,WeatherDisplay:10.37,2013-01-12 12:22:00,
2013-01-12 13:27:00,30.7,14.3,30.09,WSW,248,3.5,3.5,50,0.00,OVC,,0.00,0.0,WeatherDisplay:10.37,2013-01-12 12:27:00,
2013-01-12 13:32:00,30.6,14.1,30.09,WSW,248,3.5,3.6,50,0.00,OVC,,0.00,0.0,WeatherDisplay:10.37,2013-01-12 12:32:00,
2013-01-12 13:37:00,30.6,14.1,30.09,WSW,248,2.6,3.6,50,0.00,OVC,,0.00,0.0,WeatherDisplay:10.37,2013-01-12 12:37:00,
2013-01-12 13:42:00,30.4,13.9,30.09,WSW,248,2.6,3.6,50,0.00,OVC,,0.00,0.0,WeatherDisplay:10.37,2013-01-12 12:42:00,
2013-01-12 13:47:00,30.4,13.9,30.09,NNE,22,2.3,2.6,50,0.00,OVC,,0.00,0.0,WeatherDisplay:10.37,2013-01-12 12:47:00,
2013-01-12 13:52:00,30.4,13.9,30.09,WSW,248,2.4,2.9,50,0.00,OVC,,0.00,0.0,WeatherDisplay:10.37,2013-01-12 12:52:00,
2013-01-12 13:57:00,30.4,13.9,30.09,WSW,248,2.4,2.9,50,0.00,OVC,,0.00,0.0,WeatherDisplay:10.37,2013-01-12 12:57:00,
2013-01-12 14:02:00,30.4,13.9,30.09,WNW,292,2.6,2.6,50,0.00,OVC,,0.00,0.0,WeatherDisplay:10.37,2013-01-12 13:02:00,
2013-01-12 14:07:00,30.4,13.9,30.12,WNW,292,2.3,2.9,50,0.00,OVC,,0.00,0.0,WeatherDisplay:10.37,2013-01-12 13:07:00,
2013-01-12 14:12:00,30.4,13.9,30.12,NNW,338,3.8,3.8,50,0.00,OVC,,0.00,0.0,WeatherDisplay:10.37,2013-01-12 13:12:00,
2013-01-12 14:17:00,30.4,13.9,30.12,NNW,338,3.5,3.5,50,0.00,OVC,,0.00,0.0,WeatherDisplay:10.37,2013-01-12 13:17:00,
2013-01-12 14:22:00,30.6,14.1,30.09,WNW,292,1.1,1.4,50,0.00,OVC,,0.00,0.0,WeatherDisplay:10.37,2013-01-12 13:22:00,
2013-01-12 14:27:00,30.6,14.1,30.09,NNW,338,3.1,3.1,50,0.00,OVC,,0.00,0.0,WeatherDisplay:10.37,2013-01-12 13:27:00,
2013-01-12 14:32:00,30.6,14.1,30.09,NNW,338,3.5,3.5,50,0.00,OVC,,0.00,0.0,WeatherDisplay:10.37,2013-01-12 13:32:00,
2013-01-12 14:37:00,30.6,14.1,30.06,NNW,338,3.5,3.5,50,0.00,OVC,,0.00,0.0,WeatherDisplay:10.37,2013-01-12 13:37:00,
2013-01-12 14:42:00,30.6,14.1,30.06,NNW,338,3.5,3.5,50,0.00,OVC,,0.00,0.0,WeatherDisplay:10.37,2013-01-12 13:42:00,
2013-01-12 14:47:00,30.6,14.1,30.06,NNW,338,3.5,3.5,50,0.00,OVC,,0.00,0.0,WeatherDisplay:10.37,2013-01-12 13:47:00,
2013-01-12 14:52:00,30.7,14.3,30.09,NNW,338,3.5,3.5,50,0.00,OVC,,0.00,0.0,WeatherDisplay:10.37,2013-01-12 13:52:00,
2013-01-12 14:57:00,30.7,14.7,30.09,NNW,338,3.5,3.5,51,0.00,OVC,,0.00,0.0,WeatherDisplay:10.37,2013-01-12 13:57:00,
2013-01-12 15:02:00,30.7,14.7,30.09,NNW,338,3.5,3.5,51,0.00,OVC,,0.00,0.0,WeatherDisplay:10.37,2013-01-12 14:02:00,
2013-01-12 15:07:00,30.7,14.7,30.09,NNW,338,3.5,3.5,51,0.00,OVC,,0.00,0.0,WeatherDisplay:10.37,2013-01-12 14:07:00,
2013-01-12 15:12:00,30.7,14.7,30.09,NNW,338,3.5,3.5,51,0.00,OVC,,0.00,0.0,WeatherDisplay:10.37,2013-01-12 14:12:00,
2013-01-12 15:17:00,30.7,14.7,30.09,WNW,292,2.9,2.9,51,0.00,OVC,,0.00,0.0,WeatherDisplay:10.37,2013-01-12 14:17:00,
2013-01-12 15:22:00,30.7,15.2,30.09,WNW,292,2.9,2.9,52,0.00,OVC,,0.00,0.0,WeatherDisplay:10.37,2013-01-12 14:22:00,
2013-01-12 15:27:00,30.7,15.2,30.09,WNW,292,2.9,3.1,52,0.00,OVC,,0.00,0.0,WeatherDisplay:10.37,2013-01-12 14:27:00,
2013-01-12 15:32:00,30.7,15.2,30.09,WNW,292,2.3,2.3,52,0.00,OVC,,0.00,0.0,WeatherDisplay:10.37,2013-01-12 14:32:00,
2013-01-12 15:37:00,30.7,15.2,30.06,West,270,2.3,2.6,52,0.00,OVC,,0.00,0.0,WeatherDisplay:10.37,2013-01-12 14:37:00,
2013-01-12 15:42:00,30.7,15.6,30.06,WSW,248,3.5,3.5,53,0.00,OVC,,0.00,0.0,WeatherDisplay:10.37,2013-01-12 14:42:00,
2013-01-12 15:47:00,30.7,15.6,30.06,West,270,2.4,2.4,53,0.00,OVC,,0.00,0.0,WeatherDisplay:10.37,2013-01-12 14:47:00,
2013-01-12 15:52:00,30.7,15.6,30.09,West,270,3.5,3.5,53,0.00,OVC,,0.00,0.0,WeatherDisplay:10.37,2013-01-12 14:52:00,
2013-01-12 15:57:00,30.6,15.4,30.09,West,270,3.5,3.5,53,0.00,OVC,,0.00,0.0,WeatherDisplay:10.37,2013-01-12 14:57:00,
2013-01-12 16:02:00,30.6,15.9,30.09,NNW,338,0.0,0.0,54,0.00,OVC,,0.00,0.0,WeatherDisplay:10.37,2013-01-12 15:02:00,
2013-01-12 16:07:00,30.4,15.7,30.09,WSW,248,2.3,0.0,54,0.00,OVC,,0.00,0.0,WeatherDisplay:10.37,2013-01-12 15:07:00,
2013-01-12 16:12:00,30.4,15.7,30.09,WSW,248,0.0,0.0,54,0.00,OVC,,0.00,0.0,WeatherDisplay:10.37,2013-01-12 15:12:00,
2013-01-12 16:17:00,30.2,16.0,30.09,WNW,292,1.1,0.0,55,0.00,OVC,,0.00,0.0,WeatherDisplay:10.37,2013-01-12 15:17:00,
2013-01-12 16:22:00,30.2,16.0,30.06,WNW,292,0.0,0.0,55,0.00,OVC,,0.00,0.0,WeatherDisplay:10.37,2013-01-12 15:22:00,
2013-01-12 16:27:00,30.0,15.8,30.06,WNW,292,0.0,0.0,55,0.00,OVC,,0.00,0.0,WeatherDisplay:10.37,2013-01-12 15:27:00,
2013-01-12 16:32:00,29.8,15.6,30.06,WNW,292,0.0,0.0,55,0.00,OVC,,0.00,0.0,WeatherDisplay:10.37,2013-01-12 15:32:00,
2013-01-12 16:37:00,29.8,16.0,30.09,WNW,292,0.0,0.0,56,0.00,OVC,,0.00,0.0,WeatherDisplay:10.37,2013-01-12 15:37:00,
2013-01-12 16:42:00,29.7,15.9,30.09,NNW,338,0.0,0.0,56,0.00,OVC,,0.00,0.0,WeatherDisplay:10.37,2013-01-12 15:42:00,
2013-01-12 16:47:00,29.5,15.7,30.09,NNW,338,0.0,0.0,56,0.00,CLR,,0.00,0.0,WeatherDisplay:10.37,2013-01-12 15:47:00,
2013-01-12 16:52:00,29.3,15.5,30.09,West,270,0.0,0.0,56,0.00,CLR,,0.00,0.0,WeatherDisplay:10.37,2013-01-12 15:52:00,
2013-01-12 16:57:00,29.1,15.8,30.09,SSE,158,0.0,0.0,57,0.00,CLR,,0.00,0.0,WeatherDisplay:10.37,2013-01-12 15:57:00,
2013-01-12 17:02:00,28.9,15.6,30.09,WSW,248,0.0,0.0,57,0.00,CLR,,0.00,0.0,WeatherDisplay:10.37,2013-01-12 16:02:00,
2013-01-12 17:07:00,28.8,15.8,30.09,WNW,292,2.3,2.3,58,0.00,CLR,,0.00,0.0,WeatherDisplay:10.37,2013-01-12 16:07:00,
2013-01-12 17:12:00,28.8,15.8,30.09,WNW,292,0.0,0.0,58,0.00,CLR,,0.00,0.0,WeatherDisplay:10.37,2013-01-12 16:12:00,
2013-01-12 17:17:00,28.6,15.7,30.09,WNW,292,0.0,0.0,58,0.00,CLR,,0.00,0.0,WeatherDisplay:10.37,2013-01-12 16:17:00,
2013-01-12 17:22:00,28.6,16.1,30.09,WNW,292,2.0,0.0,59,0.00,CLR,,0.00,0.0,WeatherDisplay:10.37,2013-01-12 16:22:00,
2013-01-12 17:27:00,28.6,16.1,30.09,West,270,0.0,0.0,59,0.00,CLR,,0.00,0.0,WeatherDisplay:10.37,2013-01-12 16:27:00,
2013-01-12 17:32:00,28.8,16.6,30.09,West,270,0.0,0.0,60,0.00,CLR,,0.00,0.0,WeatherDisplay:10.37,2013-01-12 16:32:00,
2013-01-12 17:37:00,28.8,16.6,30.09,WNW,292,0.0,0.0,60,0.00,CLR,,0.00,0.0,WeatherDisplay:10.37,2013-01-12 16:37:00,
2013-01-12 17:42:00,28.9,16.8,30.09,WSW,248,0.0,0.0,60,0.00,CLR,,0.00,0.0,WeatherDisplay:10.37,2013-01-12 16:42:00,
2013-01-12 17:47:00,29.1,17.3,30.09,WSW,248,1.6,0.0,61,0.00,CLR,,0.00,0.0,WeatherDisplay:10.37,2013-01-12 16:47:00,
2013-01-12 17:52:00,29.3,17.5,30.09,WNW,292,0.0,0.0,61,0.00,CLR,,0.00,0.0,WeatherDisplay:10.37,2013-01-12 16:52:00,
2013-01-12 17:57:00,29.3,17.5,30.09,WSW,248,0.0,0.0,61,0.00,CLR,,0.00,0.0,WeatherDisplay:10.37,2013-01-12 16:57:00,
2013-01-12 18:02:00,29.3,17.9,30.09,West,270,2.6,0.0,62,0.00,CLR,,0.00,0.0,WeatherDisplay:10.37,2013-01-12 17:02:00,
2013-01-12 18:07:00,29.3,17.9,30.12,WNW,292,2.3,2.3,62,0.00,CLR,,0.00,0.0,WeatherDisplay:10.37,2013-01-12 17:07:00,
2013-01-12 18:12:00,29.3,18.3,30.12,WNW,292,2.2,0.0,63,0.00,CLR,,0.00,0.0,WeatherDisplay:10.37,2013-01-12 17:12:00,
2013-01-12 18:17:00,29.3,18.3,30.12,WNW,292,2.4,2.4,63,0.00,CLR,,0.00,0.0,WeatherDisplay:10.37,2013-01-12 17:17:00,
2013-01-12 18:22:00,29.1,18.5,30.12,NW,315,2.3,2.4,64,0.00,CLR,,0.00,0.0,WeatherDisplay:10.37,2013-01-12 17:22:00,
2013-01-12 18:27:00,29.1,18.5,30.12,WNW,292,2.3,2.4,64,0.00,CLR,,0.00,0.0,WeatherDisplay:10.37,2013-01-12 17:27:00,
2013-01-12 18:32:00,29.1,18.8,30.12,WNW,292,2.3,2.4,65,0.00,CLR,,0.00,0.0,WeatherDisplay:10.37,2013-01-12 17:32:00,
2013-01-12 18:37:00,29.1,18.8,30.12,West,270,3.5,3.5,65,0.00,CLR,,0.00,0.0,WeatherDisplay:10.37,2013-01-12 17:37:00,
2013-01-12 18:42:00,29.1,19.2,30.12,SSW,202,1.4,1.4,66,0.00,CLR,,0.00,0.0,WeatherDisplay:10.37,2013-01-12 17:42:00,
2013-01-12 18:47:00,29.1,19.2,30.12,WNW,292,2.6,2.6,66,0.00,CLR,,0.00,0.0,WeatherDisplay:10.37,2013-01-12 17:47:00,
2013-01-12 18:52:00,29.1,19.2,30.12,WNW,292,2.3,2.3,66,0.00,CLR,,0.00,0.0,WeatherDisplay:10.37,2013-01-12 17:52:00,
2013-01-12 18:57:00,28.9,19.0,30.12,SSE,158,1.1,0.0,66,0.00,CLR,,0.00,0.0,WeatherDisplay:10.37,2013-01-12 17:57:00,
2013-01-12 19:02:00,28.9,19.0,30.12,WNW,292,1.4,0.0,66,0.00,CLR,,0.00,0.0,WeatherDisplay:10.37,2013-01-12 18:02:00,
2013-01-12 19:07:00,28.8,19.2,30.12,WSW,248,0.0,0.0,67,0.00,CLR,,0.00,0.0,WeatherDisplay:10.37,2013-01-12 18:07:00,
2013-01-12 19:12:00,28.8,19.2,30.12,SW,225,2.6,2.6,67,0.00,CLR,,0.00,0.0,WeatherDisplay:10.37,2013-01-12 18:12:00,
2013-01-12 19:17:00,28.6,19.0,30.12,WSW,248,2.3,2.3,67,0.00,CLR,,0.00,0.0,WeatherDisplay:10.37,2013-01-12 18:17:00,
2013-01-12 19:22:00,28.6,19.0,30.09,SSW,202,2.3,2.3,67,0.00,CLR,,0.00,0.0,WeatherDisplay:10.37,2013-01-12 18:22:00,
2013-01-12 19:27:00,28.6,19.4,30.09,WSW,248,1.4,2.0,68,0.00,CLR,,0.00,0.0,WeatherDisplay:10.37,2013-01-12 18:27:00,
2013-01-12 19:32:00,28.4,19.5,30.09,WNW,292,2.6,0.0,69,0.00,CLR,,0.00,0.0,WeatherDisplay:10.37,2013-01-12 18:32:00,
2013-01-12 19:37:00,28.4,19.5,30.12,WNW,292,2.6,0.0,69,0.00,CLR,,0.00,0.0,WeatherDisplay:10.37,2013-01-12 18:37:00,
2013-01-12 19:42:00,28.2,19.7,30.12,WSW,248,2.3,2.3,70,0.00,CLR,,0.00,0.0,WeatherDisplay:10.37,2013-01-12 18:42:00,
2013-01-12 19:47:00,28.0,19.8,30.12,SSW,202,2.6,2.6,71,0.00,CLR,,0.00,0.0,WeatherDisplay:10.37,2013-01-12 18:47:00,
2013-01-12 19:52:00,28.0,20.2,30.12,SSW,202,2.3,0.0,72,0.00,CLR,,0.00,0.0,WeatherDisplay:10.37,2013-01-12 18:52:00,
2013-01-12 19:57:00,28.0,20.2,30.12,SW,225,2.4,2.4,72,0.00,CLR,,0.00,0.0,WeatherDisplay:10.37,2013-01-12 18:57:00,
2013-01-12 20:02:00,27.9,20.3,30.12,SSW,202,1.6,2.0,73,0.00,CLR,,0.00,0.0,WeatherDisplay:10.37,2013-01-12 19:02:00,
2013-01-12 20:07:00,27.9,20.3,30.12,SW,225,2.3,2.3,73,0.00,CLR,,0.00,0.0,WeatherDisplay:10.37,2013-01-12 19:07:00,
2013-01-12 20:12:00,27.9,20.3,30.12,SSW,202,2.9,2.9,73,0.00,CLR,,0.00,0.0,WeatherDisplay:10.37,2013-01-12 19:12:00,
2013-01-12 20:17:00,27.9,20.6,30.12,SSW,202,3.5,3.5,74,0.00,CLR,,0.00,0.0,WeatherDisplay:10.37,2013-01-12 19:17:00,
2013-01-12 20:22:00,27.9,21.0,30.12,WSW,248,2.6,2.6,75,0.00,CLR,,0.00,0.0,WeatherDisplay:10.37,2013-01-12 19:22:00,
2013-01-12 20:27:00,27.9,21.0,30.12,SSW,202,2.6,3.1,75,0.00,CLR,,0.00,0.0,WeatherDisplay:10.37,2013-01-12 19:27:00,
2013-01-12 20:32:00,27.9,21.3,30.12,WSW,248,1.1,1.4,76,0.00,CLR,,0.00,0.0,WeatherDisplay:10.37,2013-01-12 19:32:00,
2013-01-12 20:37:00,27.9,21.3,30.12,SSE,158,2.3,2.4,76,0.00,CLR,,0.00,0.0,WeatherDisplay:10.37,2013-01-12 19:37:00,
2013-01-12 20:42:00,27.9,21.3,30.12,WSW,248,3.5,3.5,76,0.00,CLR,,0.00,0.0,WeatherDisplay:10.37,2013-01-12 19:42:00,
2013-01-12 20:47:00,27.9,21.3,30.12,WSW,248,3.5,3.5,76,0.00,CLR,,0.00,0.0,WeatherDisplay:10.37,2013-01-12 19:47:00,
2013-01-12 20:52:00,28.0,21.8,30.12,SW,225,3.5,3.5,77,0.00,CLR,,0.00,0.0,WeatherDisplay:10.37,2013-01-12 19:52:00,
2013-01-12 20:57:00,28.0,21.8,30.12,SSW,202,3.8,3.8,77,0.00,CLR,,0.00,0.0,WeatherDisplay:10.37,2013-01-12 19:57:00,
2013-01-12 21:02:00,28.0,21.8,30.12,SSW,202,3.5,3.5,77,0.00,CLR,,0.00,0.0,WeatherDisplay:10.37,2013-01-12 20:02:00,
2013-01-12 21:07:00,28.0,22.1,30.12,West,270,2.6,2.6,78,0.00,CLR,,0.00,0.0,WeatherDisplay:10.37,2013-01-12 20:07:00,
2013-01-12 21:12:00,28.0,22.1,30.12,SSW,202,0.0,1.4,78,0.00,CLR,,0.00,0.0,WeatherDisplay:10.37,2013-01-12 20:12:00,
2013-01-12 21:17:00,28.0,22.1,30.12,SSW,202,2.3,2.3,78,0.00,CLR,,0.00,0.0,WeatherDisplay:10.37,2013-01-12 20:17:00,
2013-01-12 21:22:00,27.9,21.9,30.12,SSW,202,2.3,2.3,78,0.00,CLR,,0.00,0.0,WeatherDisplay:10.37,2013-01-12 20:22:00,
2013-01-12 21:27:00,27.9,21.9,30.12,SSW,202,2.3,3.1,78,0.00,CLR,,0.00,0.0,WeatherDisplay:10.37,2013-01-12 20:27:00,
2013-01-12 21:32:00,27.9,21.9,30.12,WSW,248,3.5,3.5,78,0.00,CLR,,0.00,0.0,WeatherDisplay:10.37,2013-01-12 20:32:00,
2013-01-12 21:37:00,27.9,21.9,30.12,SSW,202,2.6,2.6,78,0.00,CLR,,0.00,0.0,WeatherDisplay:10.37,2013-01-12 20:37:00,
2013-01-12 21:42:00,27.9,21.9,30.12,SW,225,2.3,2.3,78,0.00,CLR,,0.00,0.0,WeatherDisplay:10.37,2013-01-12 20:42:00,
2013-01-12 21:47:00,27.9,22.2,30.12,SSW,202,2.3,2.3,79,0.00,CLR,,0.00,0.0,WeatherDisplay:10.37,2013-01-12 20:47:00,
2013-01-12 21:52:00,27.9,22.2,30.12,SW,225,2.3,2.3,79,0.00,CLR,,0.00,0.0,WeatherDisplay:10.37,2013-01-12 20:52:00,
2013-01-12 21:57:00,27.9,22.2,30.12,SSW,202,2.3,2.3,79,0.00,CLR,,0.00,0.0,WeatherDisplay:10.37,2013-01-12 20:57:00,
2013-01-12 22:02:00,27.9,22.2,30.12,SSW,202,2.3,2.3,79,0.00,CLR,,0.00,0.0,WeatherDisplay:10.37,2013-01-12 21:02:00,
2013-01-12 22:07:00,27.9,22.2,30.15,WSW,248,2.3,2.3,79,0.00,CLR,,0.00,0.0,WeatherDisplay:10.37,2013-01-12 21:07:00,
2013-01-12 22:12:00,27.9,22.2,30.15,SSW,202,0.0,1.1,79,0.00,CLR,,0.00,0.0,WeatherDisplay:10.37,2013-01-12 21:12:00,
2013-01-12 22:18:00,27.9,22.2,30.15,WSW,248,1.1,0.0,79,0.00,CLR,,0.00,0.0,WeatherDisplay:10.37,2013-01-12 21:18:00,
2013-01-12 22:22:00,27.7,22.3,30.15,WSW,248,0.0,0.0,80,0.00,CLR,,0.00,0.0,WeatherDisplay:10.37,2013-01-12 21:22:00,
2013-01-12 22:27:00,27.5,22.1,30.15,WSW,248,0.0,0.0,80,0.00,CLR,,0.00,0.0,WeatherDisplay:10.37,2013-01-12 21:27:00,
2013-01-12 22:32:00,27.5,22.1,30.15,SSW,202,0.0,0.0,80,0.00,CLR,,0.00,0.0,WeatherDisplay:10.37,2013-01-12 21:32:00,
2013-01-12 22:37:00,27.5,22.1,30.15,WSW,248,0.0,0.0,80,0.00,CLR,,0.00,0.0,WeatherDisplay:10.37,2013-01-12 21:37:00,
2013-01-12 22:42:00,27.5,22.1,30.15,SSW,202,0.0,0.0,80,0.00,CLR,,0.00,0.0,WeatherDisplay:10.37,2013-01-12 21:42:00,
2013-01-12 22:47:00,27.7,22.3,30.15,SSW,202,0.0,0.0,80,0.00,CLR,,0.00,0.0,WeatherDisplay:10.37,2013-01-12 21:47:00,
2013-01-12 22:52:00,27.7,22.3,30.15,SW,225,2.3,2.3,80,0.00,CLR,,0.00,0.0,WeatherDisplay:10.37,2013-01-12 21:52:00,
2013-01-12 22:57:00,27.7,22.3,30.15,SSW,202,3.5,3.5,80,0.00,CLR,,0.00,0.0,WeatherDisplay:10.37,2013-01-12 21:57:00,
2013-01-12 23:02:00,27.9,22.8,30.15,SSW,202,2.4,2.4,81,0.00,CLR,,0.00,0.0,WeatherDisplay:10.37,2013-01-12 22:02:00,
2013-01-12 23:07:00,27.9,22.8,30.15,SSE,158,0.0,0.0,81,0.00,CLR,,0.00,0.0,WeatherDisplay:10.37,2013-01-12 22:07:00,
2013-01-12 23:12:00,27.9,22.8,30.15,SSW,202,1.1,0.0,81,0.00,CLR,,0.00,0.0,WeatherDisplay:10.37,2013-01-12 22:12:00,
2013-01-12 23:17:00,27.9,22.8,30.15,South,180,0.9,0.0,81,0.00,CLR,,0.00,0.0,WeatherDisplay:10.37,2013-01-12 22:17:00,
2013-01-12 23:22:00,28.0,23.0,30.15,South,180,1.1,1.1,81,0.00,CLR,,0.00,0.0,WeatherDisplay:10.37,2013-01-12 22:22:00,
2013-01-12 23:27:00,28.0,23.3,30.15,WSW,248,1.1,1.4,82,0.00,CLR,,0.00,0.0,WeatherDisplay:10.37,2013-01-12 22:27:00,
2013-01-12 23:32:00,28.0,23.3,30.15,WSW,248,2.2,0.0,82,0.00,CLR,,0.00,0.0,WeatherDisplay:10.37,2013-01-12 22:32:00,
2013-01-12 23:37:00,28.0,23.3,30.15,SSW,202,0.9,2.2,82,0.00,CLR,,0.00,0.0,WeatherDisplay:10.37,2013-01-12 22:37:00,
2013-01-12 23:43:00,28.2,23.4,30.15,West,270,2.3,2.3,82,0.00,CLR,,0.00,0.0,WeatherDisplay:10.37,2013-01-12 22:43:00,
2013-01-12 23:48:00,28.2,23.7,30.15,SSW,202,0.0,0.9,83,0.00,CLR,,0.00,0.0,WeatherDisplay:10.37,2013-01-12 22:48:00,
2013-01-12 23:53:00,28.2,23.4,30.15,WSW,248,2.3,2.6,82,0.00,CLR,,0.00,0.0,WeatherDisplay:10.37,2013-01-12 22:53:00,
2013-01-12 23:58:00,28.2,23.4,30.15,South,180,3.1,3.1,82,0.00,CLR,,0.00,0.0,WeatherDisplay:10.37,2013-01-12 22:58:00,